Weather History for Klamath Falls, OR

Change the Weather History Date:

Monday, March 4, 2013

  Actual Average Record
Temperature  
Mean Temperature 39 °F 37 °F  
Max Temperature 55 °F 49 °F 65 °F (1986)
Min Temperature 22 °F 26 °F 13 °F (2006)
Degree Days  
Heating Degree Days 26 28  
Month to date heating degree days 100 112  
Since 1 July heating degree days 4791 4953  
Cooling Degree Days 0 0  
Month to date cooling degree days 0 0  
Year to date cooling degree days 0 0  
Moisture  
Dew Point 25 °F    
Average Humidity 63    
Maximum Humidity 81    
Minimum Humidity 38    
Precipitation  
Precipitation 0.00 in 0.04 in 0.58 in (1991)
Month to date precipitation 0.09 0.21  
Year to date precipitation 0.87 3.98  
Sea Level Pressure  
Sea Level Pressure 30.04 in    
Wind  
Wind Speed 6 mph (SE)    
Max Wind Speed 17 mph    
Max Gust Speed 21 mph    
Visibility 10 miles    
Events      
T = Trace of Precipitation, MM = Missing Value Source: NWS Daily Summary

Daily Weather History Graph

Daily Weather History Graph

Search for Another Location

Airport:

Trip Planner

Search our weather history database for the weather conditions in past years. The results will help you decide how hot, cold, wet, or windy it might be!

Date:

Astronomy

Mar. 04, 2013 Rise Set
Actual Time 6:36 AM PST 6:00 PM PST
Civil Twilight 6:08 AM PST 6:29 PM PST
Nautical Twilight 5:36 AM PST 7:01 PM PST
Astronomical Twilight 5:03 AM PST 7:33 PM PST
Moon 12:56 AM PST (3/4) 10:43 AM PST (3/4)
Length of Visible Light 12h 20m
Length of Day
11h 24m
Waning Gibbous, 51% of the Moon is Illuminated
Mar 4
Waning Gibbous
Mar 4
Last Quarter
Mar 11
New
Mar 19
First Quarter
Mar 27
Full

Hourly Weather History & Observations

Time (PST) Temp. Windchill Dew Point Humidity Pressure Visibility Wind Dir Wind Speed Gust Speed Precip Events Conditions
12:53 AM 28.9 °F 25.2 °F 21.0 °F 72% 30.09 in 10.0 mi NNW 3.5 mph - N/A   Clear
1:53 AM 28.9 °F 25.2 °F 19.0 °F 67% 30.10 in 10.0 mi North 3.5 mph - N/A   Clear
2:53 AM 27.0 °F 19.5 °F 19.0 °F 72% 30.09 in 10.0 mi NNW 6.9 mph - N/A   Clear
3:53 AM 24.1 °F 17.0 °F 18.0 °F 77% 30.09 in 10.0 mi North 5.8 mph - N/A   Clear
4:53 AM 25.0 °F - 19.0 °F 78% 30.09 in 10.0 mi Calm Calm - N/A   Clear
5:53 AM 23.0 °F 17.0 °F 17.1 °F 78% 30.12 in 10.0 mi NNE 4.6 mph - N/A   Clear
6:00 AM 23.0 °F 15.8 °F 17.6 °F 80% 30.08 in 10.0 mi North 5.8 mph - N/A   Clear
6:53 AM 24.1 °F 18.2 °F 17.1 °F 75% 30.14 in 10.0 mi NNE 4.6 mph - N/A   Partly Cloudy
7:53 AM 28.9 °F - 21.0 °F 72% 30.14 in 10.0 mi Calm Calm - N/A   Scattered Clouds
8:53 AM 32.0 °F 27.5 °F 19.9 °F 61% 30.15 in 10.0 mi NW 4.6 mph - N/A   Scattered Clouds
9:53 AM 36.0 °F - 21.0 °F 55% 30.12 in 10.0 mi Calm Calm - N/A   Scattered Clouds
10:53 AM 39.0 °F 36.8 °F 24.1 °F 55% 30.11 in 10.0 mi South 3.5 mph - N/A   Scattered Clouds
11:53 AM 44.1 °F 42.5 °F 27.0 °F 51% 30.07 in 10.0 mi Variable 3.5 mph - N/A   Mostly Cloudy
12:53 PM 48.0 °F - 28.9 °F 48% 30.03 in 10.0 mi ESE 3.5 mph - N/A   Scattered Clouds
1:53 PM 52.0 °F - 30.0 °F 43% 29.99 in 10.0 mi South 5.8 mph - N/A   Scattered Clouds
2:53 PM 54.0 °F - 28.0 °F 37% 29.97 in 10.0 mi SSE 4.6 mph - N/A   Mostly Cloudy
3:53 PM 54.0 °F - 28.9 °F 38% 29.97 in 10.0 mi South 6.9 mph - N/A   Mostly Cloudy
4:53 PM 53.1 °F - 30.9 °F 43% 29.96 in 10.0 mi SSE 8.1 mph - N/A   Scattered Clouds
5:53 PM 46.9 °F - 32.0 °F 56% 29.97 in 10.0 mi South 13.8 mph - N/A   Scattered Clouds
6:53 PM 45.0 °F 38.5 °F 30.9 °F 58% 29.97 in 7.0 mi SE 13.8 mph - N/A   Scattered Clouds
7:53 PM 42.1 °F 34.2 °F 32.0 °F 67% 29.97 in 7.0 mi South 16.1 mph - N/A   Partly Cloudy
8:53 PM 41.0 °F 35.2 °F 32.0 °F 70% 29.97 in 7.0 mi SSE 9.2 mph - N/A   Partly Cloudy
9:53 PM 39.0 °F 34.8 °F 32.0 °F 76% 29.96 in 7.0 mi South 5.8 mph - N/A   Partly Cloudy
11:53 PM 37.9 °F 30.9 °F 32.0 °F 79% 29.92 in 10.0 mi SSE 10.4 mph - N/A   Clear